User: anonymous   Login
Location: Forst
(46.9333°N, 15.4333°E)
Time: 23:11:31
(UTC+00:00)
Language:

deb Agena D - Orbit

View from above orbital plane
View from above orbital plane
View from above satellite
View from above satellite

Ground track
Ground track

The orbit data is extracted from the following two-line orbital elements,

1  4861U 70025ER  21175.39846925  .00004615  00000-0  42824-3 0  9994
2  4861  99.7004 227.5478 0013683 277.3193  82.6466 14.95050566644409
Epoch (UTC): 24 June 2021 09:33:47
Eccentricity: 0.0013683
inclination: 99.7004°
perigee height: 572 km
apogee height: 592 km
right ascension of ascending node: 227.5478°
argument of perigee: 277.3193°
revolutions per day: 14.95050566
mean anomaly at epoch: 82.6466°
orbit number at epoch: 64440

The dashed part of the orbit path shows where the satellite is in the earth's shadow,  

DLR